EW1669 Weather Reports


time (UTC)temp
F
wind
direction
speed
knots
gust
knots
rain 1hr
in
rain 24hr
in
rain mn
in
humidity
%
barometer
mb
20260505214608 74 144 0.0 0.9 0.00 0.00 0.00 31 1010.2
20260505213753 74 203 0.0 0.0 0.00 0.00 0.00 30 1010.6
20260505213146 75 195 0.0 0.9 0.00 0.00 0.00 29 1010.6
20260505212543 76 189 0.0 0.9 0.00 0.00 0.00 29 1010.6
20260505211947 74 216 0.0 0.9 0.00 0.00 0.00 30 1010.6
20260505211352 75 190 0.0 0.9 0.00 0.00 0.00 30 1010.6
20260505210751 74 272 0.0 0.9 0.00 0.00 0.00 30 1010.6
20260505210152 73 226 0.0 0.9 0.00 0.00 0.00 31 1010.9
20260505205550 73 219 0.0 0.0 0.00 0.00 0.00 30 1010.6
20260505204946 74 202 0.0 0.0 0.00 0.00 0.00 30 1011.2
20260505204321 74 238 0.0 0.0 0.00 0.00 0.00 31 1011.2
20260505203658 74 278 0.0 0.0 0.00 0.00 0.00 31 1011.6
20260505203323 74 258 0.0 0.0 0.00 0.00 0.00 31 1011.6
20260505202510 73 239 0.0 1.7 0.00 0.00 0.00 32 1011.9
20260505201851 73 298 0.0 3.5 0.00 0.00 0.00 33 1011.9
20260505201508 73 211 0.0 2.6 0.00 0.00 0.00 30 1012.3
20260505200659 73 214 0.9 2.6 0.00 0.00 0.00 29 1011.9
20260505200054 73 153 0.0 0.0 0.00 0.00 0.00 30 1012.3
20260505195510 73 197 0.0 0.0 0.00 0.00 0.00 28 1012.3
20260505194908 73 180 0.0 0.0 0.00 0.00 0.00 29 1011.6
20260505194241 73 212 0.0 0.0 0.00 0.00 0.00 29 1011.9
20260505193701 72 162 0.0 0.0 0.00 0.00 0.00 29 1012.3
20260505193110 72 140 0.0 0.9 0.00 0.00 0.00 29 1011.9
20260505192446 72 207 0.0 0.0 0.00 0.00 0.00 29 1012.3
20260505191852 71 126 0.0 1.7 0.00 0.00 0.00 31 1012.3
20260505191303 71 156 0.9 1.7 0.00 0.00 0.00 29 1012.3
20260505190651 71 114 0.0 0.0 0.00 0.00 0.00 29 1012.3
20260505190051 71 117 0.0 0.0 0.00 0.00 0.00 30 1012.3
20260505185512 73 346 0.0 0.0 0.00 0.00 0.00 29 1012.3
20260505184850 72 85 0.0 0.0 0.00 0.00 0.00 29 1011.9
20260505184253 71 280 0.0 0.0 0.00 0.00 0.00 30 1012.3
20260505183642 70 357 0.0 0.0 0.00 0.00 0.00 30 1012.3
20260505183056 69 137 0.0 0.0 0.00 0.00 0.00 31 1012.6
20260505182448 69 117 0.0 0.0 0.00 0.00 0.00 30 1012.6
20260505181858 69 192 0.0 0.0 0.00 0.00 0.00 30 1012.9
20260505181252 69 347 0.0 0.0 0.00 0.00 0.00 31 1012.9
20260505180648 68 347 0.0 3.5 0.00 0.00 0.00 31 1012.6
20260505180057 67 25 0.0 6.1 0.00 0.00 0.00 34 1012.9
20260505175712 67 342 3.5 6.1 0.00 0.00 0.00 33 1012.9
20260505174907 68 297 0.0 0.9 0.00 0.00 0.00 33 1012.9
20260505174248 67 9 0.0 1.7 0.00 0.00 0.00 34 1012.9
20260505173646 67 119 0.0 0.9 0.00 0.00 0.00 34 1012.9
20260505173142 67 25 0.0 2.6 0.00 0.00 0.00 34 1013.3
20260505172551 66 358 0.9 2.6 0.00 0.00 0.00 35 1012.9
20260505172223 67 341 0.0 0.0 0.00 0.00 0.00 35 1012.9
20260505171353 66 81 0.0 2.6 0.00 0.00 0.00 35 1012.9
20260505170753 67 3 0.0 0.9 0.00 0.00 0.00 34 1012.9
20260505170146 67 37 0.0 0.0 0.00 0.00 0.00 34 1012.6
20260505165546 65 60 0.0 0.0 0.00 0.00 0.00 36 1012.6
20260505164938 66 16 0.0 0.0 0.00 0.00 0.00 36 1012.6
20260505164332 66 113 0.0 0.0 0.00 0.00 0.00 37 1012.9
20260505164018 65 57 0.0 0.0 0.00 0.00 0.00 38 1012.9
20260505163156 65 73 0.0 0.0 0.00 0.00 0.00 37 1012.9
20260505162546 63 83 0.0 6.1 0.00 0.00 0.00 39 1012.9
20260505161952 63 9 3.5 6.1 0.00 0.00 0.00 40 1013.3
20260505161340 62 344 0.0 1.7 0.00 0.00 0.00 40 1012.6
20260505160755 62 12 0.0 1.7 0.00 0.00 0.00 41 1013.3
20260505160147 62 13 0.0 7.8 0.00 0.00 0.00 41 1013.3
20260505153240 60 20 0.9 2.6 0.00 0.00 0.00 44 1012.9
20260505152904 61 352 0.9 0.9 0.00 0.00 0.00 44 1012.9
20260505152050 60 9 0.0 0.9 0.00 0.00 0.00 45 1013.3
20260505151711 59 36 0.0 3.5 0.00 0.00 0.00 45 1012.9
20260505150846 59 41 0.0 5.2 0.00 0.00 0.00 47 1013.3
20260505150248 58 345 0.0 1.7 0.00 0.00 0.00 47 1013.3
20260505140615 56 336 0.0 7.8 0.00 0.00 0.00 54 1011.9
20260505124910 57 345 0.0 2.6 0.00 0.00 0.00 52 1011.2
20260505124721 58 333 0.9 5.2 0.00 0.00 0.00 50 1011.2
20260505123658 58 347 0.9 2.6 0.00 0.00 0.00 49 1010.9
20260505123110 59 11 0.0 1.7 0.00 0.00 0.00 47 1011.2
20260505122453 59 2 0.0 8.7 0.00 0.00 0.00 45 1010.9
20260505121904 60 16 0.0 7.8 0.00 0.00 0.00 43 1010.9
20260505121256 61 8 1.7 2.6 0.00 0.00 0.00 40 1010.9
20260505120648 64 345 0.0 0.9 0.00 0.00 0.00 31 1010.6
20260505120109 64 269 0.0 0.0 0.00 0.00 0.00 31 1010.6
20260505115449 64 287 0.0 1.7 0.00 0.00 0.00 32 1010.2
20260505114848 64 335 0.0 0.0 0.00 0.00 0.00 31 1010.6
20260505114256 63 253 0.0 0.9 0.00 0.00 0.00 32 1009.5
20260505113650 63 344 0.0 0.9 0.00 0.00 0.00 32 1010.6
20260505113100 64 242 0.0 0.0 0.00 0.00 0.00 31 1009.9
20260505112453 64 237 0.0 0.0 0.00 0.00 0.00 31 1009.5
20260505111853 64 260 0.0 0.0 0.00 0.00 0.00 31 1009.9
20260505111252 64 235 0.0 0.9 0.00 0.00 0.00 30 1009.5
20260505111120 64 218 0.0 0.0 0.00 0.00 0.00 30 1009.5
20260505110109 64 187 0.0 0.0 0.00 0.00 0.00 30 1009.9
20260505101939 63 224 0.0 0.0 0.00 0.00 0.00 30 1009.5
20260505101357 63 204 0.0 0.0 0.00 0.00 0.00 30 1009.9
20260505100751 63 232 0.0 0.0 0.00 0.00 0.00 30 1009.5
20260505100136 63 217 0.0 0.0 0.00 0.00 0.00 30 1010.2
20260505095516 63 214 0.0 1.7 0.00 0.00 0.00 30 1009.9
20260505094854 63 224 0.9 1.7 0.00 0.00 0.00 30 1009.9
20260505094305 63 218 0.0 0.0 0.00 0.00 0.00 29 1010.2
20260505093922 62 216 0.0 0.0 0.00 0.00 0.00 30 1009.9
20260505093538 63 206 0.0 0.0 0.00 0.00 0.00 30 1009.9
20260505092716 63 218 0.0 0.0 0.00 0.00 0.00 29 1009.9
20260505091902 63 218 0.0 0.0 0.00 0.00 0.00 29 1009.9
20260505091352 63 199 0.0 0.0 0.00 0.00 0.00 29 1009.9
20260505090751 63 215 0.0 0.0 0.00 0.00 0.00 29 1009.5
20260505090147 63 199 0.0 0.0 0.00 0.00 0.00 28 1009.5
20260505085550 64 238 0.0 0.0 0.00 0.00 0.00 28 1009.5
20260505084953 64 213 0.0 0.0 0.00 0.00 0.00 27 1009.5
20260505084349 65 209 0.0 0.0 0.00 0.00 0.00 27 1009.5
20260505083751 65 217 0.0 0.0 0.00 0.00 0.00 26 1009.5
20260505083229 66 207 0.0 0.0 0.00 0.00 0.00 26 1009.5
20260505082641 66 203 0.0 0.0 0.00 0.00 0.00 25 1009.5
20260505082054 66 212 0.0 0.0 0.00 0.00 0.00 25 1009.5
20260505081911 67 206 0.0 0.0 0.00 0.00 0.00 25 1009.5
20260505081108 67 229 0.0 0.0 0.00 0.00 0.00 25 1009.2
20260505080252 66 225 0.0 0.0 0.00 0.00 0.00 25 1009.5
20260505075654 66 260 0.0 0.0 0.00 0.00 0.00 25 1009.2
20260505075324 67 231 0.0 0.0 0.00 0.00 0.00 25 1009.2
20260505074511 67 225 0.0 0.0 0.00 0.00 0.00 25 1009.5
20260505074329 67 219 0.0 0.0 0.00 0.00 0.00 25 1009.5
20260505073248 67 229 0.0 0.0 0.00 0.00 0.00 25 1009.5
20260505072647 66 215 0.0 0.0 0.00 0.00 0.00 26 1009.5
20260505072052 66 208 0.0 0.0 0.00 0.00 0.00 27 1009.5
20260505071456 66 212 0.0 0.0 0.00 0.00 0.00 27 1009.5
20260505070843 66 204 0.0 0.9 0.00 0.00 0.00 27 1009.9
20260505070248 67 210 0.0 0.9 0.00 0.00 0.00 27 1009.5
20260505065651 67 202 0.0 0.9 0.00 0.00 0.00 26 1009.5
20260505065048 67 201 0.0 1.7 0.00 0.00 0.00 26 1009.5
20260505064716 68 215 0.0 3.5 0.00 0.00 0.00 25 1009.5
20260505063850 68 220 0.0 3.5 0.00 0.00 0.00 25 1009.5
20260505063251 69 210 0.0 0.9 0.00 0.00 0.00 24 1009.5
20260505062917 69 205 0.0 5.2 0.00 0.00 0.00 24 1009.5
20260505062042 68 185 0.0 3.5 0.00 0.00 0.00 25 1009.5
20260505061454 68 211 0.0 0.0 0.00 0.00 0.00 26 1009.5
20260505060852 68 209 0.0 0.0 0.00 0.00 0.00 25 1009.5
20260505060310 68 202 0.0 0.0 0.00 0.00 0.00 25 1009.9
20260505055736 68 203 0.0 0.0 0.00 0.00 0.00 25 1009.5
20260505055416 68 199 0.0 0.0 0.00 0.00 0.00 25 1009.9
20260505054553 68 203 0.0 0.9 0.00 0.00 0.00 25 1009.5
20260505053959 69 215 0.0 0.9 0.00 0.00 0.00 24 1009.5
20260505053406 69 220 0.0 2.6 0.00 0.00 0.00 24 1009.5
20260505052740 69 226 0.0 0.9 0.00 0.00 0.00 24 1009.9
20260505052414 69 220 0.0 2.6 0.00 0.00 0.00 23 1009.5
20260505051605 69 199 0.0 2.6 0.00 0.00 0.00 24 1009.9
20260505050951 70 190 0.0 2.6 0.00 0.00 0.00 23 1009.9
20260505050409 70 210 0.0 2.6 0.00 0.00 0.00 23 1009.5
20260505040953 71 205 0.0 6.1 0.00 0.00 0.00 22 1010.2
20260505040400 72 212 1.7 6.1 0.00 0.00 0.00 22 1009.9
20260505035750 71 215 0.0 1.7 0.00 0.00 0.00 22 1009.9
20260505035406 71 204 0.0 1.7 0.00 0.00 0.00 22 1009.9
20260505034559 72 210 0.0 0.9 0.00 0.00 0.00 21 1009.5
20260505033952 71 214 0.0 0.9 0.00 0.00 0.00 21 1009.9
20260505033353 72 183 0.0 1.7 0.00 0.00 0.00 21 1009.9
20260505032849 72 192 0.0 5.2 0.00 0.00 0.00 21 1009.9
20260505032240 72 217 1.7 6.1 0.00 0.00 0.00 21 1009.5
20260505031906 72 231 0.9 6.1 0.00 0.00 0.00 21 1009.5
20260505031047 72 214 0.0 7.0 0.00 0.00 0.00 21 1009.5
20260505030454 72 235 0.9 2.6 0.00 0.00 0.00 21 1009.5
20260505025840 71 182 0.0 7.8 0.00 0.00 0.00 22 1009.5
20260505025750 71 207 3.5 7.8 0.00 0.00 0.00 22 1009.5
20260505024745 71 215 0.9 6.1 0.00 0.00 0.00 22 1009.5
20260505024234 71 211 0.0 1.7 0.00 0.00 0.00 23 1009.5
20260505024207 71 217 0.0 3.5 0.00 0.00 0.00 23 1009.5
20260505023207 71 198 0.0 3.5 0.00 0.00 0.00 23 1009.5
20260505022653 72 209 0.0 2.6 0.00 0.00 0.00 23 1009.5
20260505022140 72 197 0.0 2.6 0.00 0.00 0.00 23 1009.2
20260505021628 72 210 0.0 1.7 0.00 0.00 0.00 23 1009.2
20260505021109 73 193 0.0 1.7 0.00 0.00 0.00 23 1009.2
20260505021050 73 220 0.9 2.6 0.00 0.00 0.00 22 1009.2
20260505020049 73 187 0.0 3.5 0.00 0.00 0.00 22 1008.9
20260505015537 73 210 0.0 3.5 0.00 0.00 0.00 22 1008.9
20260505015024 74 230 0.9 2.6 0.00 0.00 0.00 22 1008.9
20260505014510 74 209 0.9 3.5 0.00 0.00 0.00 22 1008.9
20260505014010 74 222 0.0 8.7 0.00 0.00 0.00 22 1008.9
20260505013508 74 204 0.0 8.7 0.00 0.00 0.00 21 1008.9
20260505013007 75 210 0.0 5.2 0.00 0.00 0.00 21 1009.2
20260505012453 75 212 0.0 2.6 0.00 0.00 0.00 21 1009.2
20260505011940 75 194 0.0 2.6 0.00 0.00 0.00 21 1009.5
20260505011437 75 217 0.0 6.1 0.00 0.00 0.00 20 1008.9
20260505010930 76 224 1.7 7.8 0.00 0.00 0.00 20 1009.2
20260505010640 76 227 2.6 7.8 0.00 0.00 0.00 20 1008.9
20260505005904 76 209 0.9 14.8 0.00 0.00 0.00 20 1009.2
20260505005350 76 173 7.8 14.8 0.00 0.00 0.00 20 1009.2
20260505004838 76 205 0.9 12.2 0.00 0.00 0.00 20 1008.9
20260505004325 76 208 0.0 12.2 0.00 0.00 0.00 20 1009.2
20260505003810 76 213 4.3 12.2 0.00 0.00 0.00 20 1009.2
20260505003258 77 229 0.9 13.0 0.00 0.00 0.00 20 1009.5
20260505002744 77 206 0.9 13.9 0.00 0.00 0.00 20 1009.2
20260505002229 77 225 7.8 15.6 0.00 0.00 0.00 19 1009.2
20260505001708 77 209 1.7 15.6 0.00 0.00 0.00 19 1009.5
20260505001208 78 270 1.7 12.2 0.00 0.00 0.00 19 1009.2
20260505000708 78 205 0.0 8.7 0.00 0.00 0.00 18 1009.5
20260505000211 78 219 0.0 3.5 0.00 0.00 0.00 14 1009.5
20260504235657 79 231 0.0 2.6 0.00 0.00 0.00 13 1009.2
20260504235145 79 195 0.0 2.6 0.00 0.00 0.00 12 1009.5
20260504234632 79 179 0.0 1.7 0.00 0.00 0.00 13 1009.5
20260504234109 79 197 0.0 1.7 0.00 0.00 0.00 13 1009.5
20260504233605 79 214 0.0 0.9 0.00 0.00 0.00 12 1009.5
20260504233052 79 183 0.0 1.7 0.00 0.00 0.00 12 1009.5
20260504232539 79 189 0.0 1.7 0.00 0.00 0.00 12 1009.5
20260504232027 79 208 0.0 1.7 0.00 0.00 0.00 14 1009.9
20260504231513 79 196 0.0 6.1 0.00 0.00 0.00 12 1009.9
20260504231001 79 244 0.0 6.1 0.00 0.00 0.00 12 1009.5
20260504230710 79 228 0.0 3.5 0.00 0.00 0.00 12 1009.5
20260504230157 79 243 0.0 0.9 0.00 0.00 0.00 12 1009.5
20260504225427 79 285 0.0 2.6 0.00 0.00 0.00 12 1009.5
20260504225145 80 211 0.0 2.6 0.00 0.00 0.00 11 1009.5
20260504224406 80 231 0.9 3.5 0.00 0.00 0.00 11 1009.5
20260504223853 80 231 0.9 9.6 0.00 0.00 0.00 11 1009.5
20260504223605 81 223 0.9 12.2 0.00 0.00 0.00 11 1009.5
20260504223056 81 215 0.0 12.2 0.00 0.00 0.00 11 1009.5
20260504222324 81 231 2.6 11.3 0.00 0.00 0.00 11 1009.9
20260504221810 80 235 0.0 11.3 0.00 0.00 0.00 12 1009.9
20260504221303 80 217 0.0 3.5 0.00 0.00 0.00 11 1010.2
20260504221017 80 246 0.0 5.2 0.00 0.00 0.00 12 1009.5
20260504220242 80 228 0.0 6.1 0.00 0.00 0.00 12 1009.9
20260504215733 81 235 0.0 6.1 0.00 0.00 0.00 12 1009.9
20260504215440 81 235 0.0 0.9 0.00 0.00 0.00 12 1009.9
20260504214710 81 251 0.0 7.0 0.00 0.00 0.00 12 1009.9